Home > Weather > Moers > Past weeks

Flag for Germany Weather for the Past 2 Weeks in Moers, North Rhine-Westphalia, Germany

Now
52 °F

Clear.


Feels Like: 47 °F
Forecast: 45 / 50 °F
Wind: 14 mph from Southeast

Location: Duesseldorf

Current Time: Feb 6, 2016 at 7:51:28 PM

Latest Report: Feb 6, 2016 at 7:20 PM


Visibility: 10 mi

Pressure: 29.65 "Hg

Humidity: 67%

Dew point: 41 °F

Location of MoersLocation

Historic Weather in Moers — Graph

°F

Moers Temperature Yesterday

Maximum temperature yesterday: 50 °F (at 1:50 PM)
Minimum temperature yesterday: 39 °F (at 12:20 AM)
Average temperature yesterday: 45 °F

High & Low Weather Summary for the Past Weeks

 TemperatureHumidityPressure
High57 °F (Jan 25, 1:50 PM)100% (Jan 22, 11:50 PM)30.54 "Hg (Jan 22, 11:50 PM)
Low32 °F (Jan 22, 8:50 PM)57% (Jan 28, 2:50 PM)29.68 "Hg (Feb 6, 6:20 PM)
Average46 °F85%30.12 "Hg
* Reported Jan 22 6:20 PM — Feb 6 6:20 PM, Moers, Weather by CustomWeather, © 2016

Note: Actual official high and low records may vary slightly from our data, if they occured in-between our weather recording intervals... More about our weather records

Advertising

Moers Weather History for the Previous 24 Hours

 ConditionsComfort  
Time TempWeatherWind HumidityBarometerVisibility
6:20 PM
Sat, Feb 6
50 °FClear.12 mph71%29.68 "Hg10 mi
5:50 PM50 °FPassing clouds.12 mph71%29.71 "HgN/A
5:20 PM50 °FSunny.15 mph71%29.71 "Hg10 mi
4:50 PM52 °FSunny.17 mph67%29.74 "Hg10 mi
4:20 PM52 °FSunny.17 mph67%29.74 "Hg10 mi
3:50 PM54 °FPartly sunny.15 mph63%29.74 "HgN/A
3:20 PM54 °FPartly sunny.16 mph63%29.77 "HgN/A
2:50 PM54 °FBroken clouds.17 mph67%29.80 "HgN/A
2:20 PM52 °FBroken clouds.16 mph67%29.80 "HgN/A
1:50 PM54 °FBroken clouds.15 mph63%29.80 "HgN/A
1:20 PM52 °FPartly sunny.13 mph72%29.83 "HgN/A
12:50 PM52 °FBroken clouds.16 mph72%29.86 "HgN/A
12:20 PM52 °FPartly sunny.17 mph72%29.86 "HgN/A
11:50 AM50 °FPartly sunny.15 mph76%29.86 "HgN/A
11:20 AM48 °FPartly sunny.12 mph82%29.89 "HgN/A
10:50 AM48 °FPartly sunny.15 mph82%29.89 "HgN/A
10:20 AM48 °FPartly sunny.15 mph82%29.89 "HgN/A
9:50 AM48 °FScattered clouds.15 mph76%29.89 "HgN/A
9:20 AM46 °FScattered clouds.14 mph82%29.89 "HgN/A
8:50 AM46 °FScattered clouds.14 mph82%29.92 "HgN/A
8:20 AM46 °FPartly sunny.14 mph82%29.89 "HgN/A
7:50 AM46 °FPassing clouds.14 mph87%29.92 "HgN/A
7:20 AM46 °FPartly cloudy.12 mph87%29.92 "HgN/A
6:50 AM46 °FClear.16 mph82%29.92 "Hg10 mi
6:20 AM46 °FClear.16 mph87%29.92 "Hg10 mi
5:50 AM46 °FClear.15 mph87%29.92 "Hg10 mi
5:20 AM46 °FClear.15 mph87%29.92 "Hg10 mi
4:50 AM48 °FClear.14 mph82%29.95 "Hg10 mi
4:20 AM48 °FClear.13 mph82%29.95 "Hg10 mi
3:50 AM48 °FClear.14 mph82%29.98 "Hg10 mi
3:20 AM48 °FPassing clouds.12 mph82%29.98 "HgN/A
2:50 AM48 °FPassing clouds.10 mph87%30.01 "HgN/A
2:20 AM50 °FPartly cloudy.13 mph82%30.01 "HgN/A
1:20 AM50 °FPassing clouds.14 mph82%30.04 "HgN/A
12:50 AM50 °FPassing clouds.13 mph82%30.04 "HgN/A
12:20 AM50 °FPartly cloudy.14 mph82%30.07 "HgN/A
11:20 PM
Fri, Feb 5
50 °FPartly cloudy.14 mph82%30.07 "HgN/A
10:50 PM50 °FPassing clouds.12 mph82%30.07 "HgN/A
10:20 PM50 °FPartly cloudy.9 mph82%30.09 "HgN/A
9:50 PM50 °FPassing clouds.13 mph82%30.09 "HgN/A
9:20 PM50 °FPassing clouds.9 mph88%30.09 "HgN/A
8:50 PM50 °FOvercast.10 mph88%30.12 "HgN/A
8:20 PM50 °FPartly cloudy.12 mph88%30.12 "HgN/A
7:50 PM50 °FPassing clouds.13 mph88%30.12 "HgN/A
7:20 PM50 °FPassing clouds.10 mph88%30.12 "HgN/A
Weather by CustomWeather, © 2016

See weather overviewHow to use our weather pages